KC0AFB Weather Reports


time (UTC)temp
C
wind
direction
speed
KPH
gust
KPH
rain 1hr
cm
rain 24hr
cm
rain mn
cm
humidity
%
barometer
mb
20260831135827 15 205 11.3 12.9 0.00 0.00 0.00 81 1013.6
20260831135322 15 214 11.3 14.5 0.00 0.00 0.00 81 1013.5
20260831134817 15 197 9.7 11.3 0.00 0.00 0.00 82 1013.5
20260831134314 15 213 9.7 11.3 0.00 0.00 0.00 82 1013.5
20260831133813 14 201 12.9 14.5 0.00 0.00 0.00 83 1013.5
20260831133312 14 215 11.3 14.5 0.00 0.00 0.00 84 1013.5
20260831132808 14 200 9.7 14.5 0.00 0.00 0.00 83 1013.5
20260831132306 13 184 11.3 12.9 0.00 0.00 0.00 84 1013.2
20260831131757 13 195 8.0 11.3 0.00 0.00 0.00 85 1013.6
20260831131253 13 198 6.4 8.0 0.00 0.00 0.00 85 1013.6
20260831130748 13 177 9.7 11.3 0.00 0.00 0.00 86 1013.2
20260831130244 13 194 8.0 9.7 0.00 0.00 0.00 86 1013.5
20260831125742 13 212 4.8 9.7 0.00 0.00 0.00 87 1013.3
20260831125238 12 191 4.8 8.0 0.00 0.00 0.00 88 1013.5
20260831124732 12 218 6.4 8.0 0.00 0.00 0.00 89 1013.4
20260831124229 12 196 3.2 3.2 0.00 0.00 0.00 90 1013.5
20260831123729 12 179 1.6 3.2 0.00 0.00 0.00 90 1013.4
20260831123227 11 200 1.6 1.6 0.00 0.00 0.00 91 1013.2
20260831122722 11 136 0.0 1.6 0.00 0.00 0.00 91 1013.4
20260831122218 11 166 1.6 1.6 0.00 0.00 0.00 91 1013.3
20260831121717 11 114 0.0 0.0 0.00 0.00 0.00 91 1013.3
20260831121214 11 190 3.2 3.2 0.00 0.00 0.00 91 1013.4
20260831120709 11 197 1.6 1.6 0.00 0.00 0.00 91 1013.2
20260831120203 11 273 3.2 3.2 0.00 0.00 0.00 92 1013.0
20260831115659 11 69 0.0 0.0 0.00 0.00 0.00 92 1013.1
20260831115155 11 74 0.0 1.6 0.00 0.00 0.00 92 1012.9
20260831114654 11 93 0.0 0.0 0.00 0.00 0.00 92 1013.0
20260831114148 11 162 0.0 0.0 0.00 0.00 0.00 92 1013.0
20260831113643 11 214 1.6 3.2 0.00 0.00 0.00 92 1012.7
20260831113138 11 205 3.2 4.8 0.00 0.00 0.00 92 1012.6
20260831112637 11 206 1.6 3.2 0.00 0.00 0.00 92 1012.6
20260831112132 11 215 3.2 3.2 0.00 0.00 0.00 92 1012.7
20260831111628 11 158 1.6 1.6 0.00 0.00 0.00 92 1012.6
20260831111123 11 202 4.8 4.8 0.00 0.00 0.00 92 1012.7
20260831110618 11 221 3.2 3.2 0.00 0.00 0.00 92 1012.6
20260831110109 11 180 3.2 3.2 0.00 0.00 0.00 92 1012.6
20260831105607 11 203 3.2 3.2 0.00 0.00 0.00 92 1012.5
20260831105102 11 191 3.2 3.2 0.00 0.00 0.00 92 1012.5
20260831104557 11 162 3.2 3.2 0.00 0.00 0.00 92 1012.3
20260831104048 11 181 3.2 3.2 0.00 0.00 0.00 92 1012.6
20260831103543 11 188 3.2 3.2 0.00 0.00 0.00 92 1012.3
20260831103039 11 188 4.8 8.0 0.00 0.00 0.00 92 1012.2
20260831102533 11 197 3.2 3.2 0.00 0.00 0.00 92 1012.0
20260831102028 11 211 3.2 3.2 0.00 0.00 0.00 92 1012.2
20260831101523 11 158 0.0 0.0 0.00 0.00 0.00 92 1011.9
20260831101020 11 196 1.6 3.2 0.00 0.00 0.00 92 1011.9
20260831100515 11 230 1.6 3.2 0.00 0.00 0.00 92 1011.9
20260831100011 11 183 4.8 4.8 0.00 0.00 0.00 92 1011.8
20260831095509 11 190 0.0 0.0 0.00 0.00 0.00 92 1011.7
20260831095004 11 168 0.0 0.0 0.00 0.00 0.00 92 1012.0
20260831094500 11 158 0.0 1.6 0.00 0.00 0.00 91 1012.0
20260831093956 11 211 3.2 3.2 0.00 0.00 0.00 91 1011.8
20260831093450 11 187 1.6 1.6 0.00 0.00 0.00 92 1011.6
20260831092947 11 171 1.6 1.6 0.00 0.00 0.00 92 1011.8
20260831092442 11 169 0.0 0.0 0.00 0.00 0.00 92 1011.7
20260831091937 11 171 0.0 0.0 0.00 0.00 0.00 92 1011.7
20260831091433 11 186 1.6 1.6 0.00 0.00 0.00 92 1011.5
20260831090927 11 165 0.0 0.0 0.00 0.00 0.00 92 1011.5
20260831090424 11 219 3.2 3.2 0.00 0.00 0.00 92 1011.6
20260831085920 11 204 0.0 0.0 0.00 0.00 0.00 92 1011.5
20260831085414 11 183 0.0 0.0 0.00 0.00 0.00 92 1011.7
20260831084914 11 138 0.0 0.0 0.00 0.00 0.00 92 1011.7
20260831084410 11 185 1.6 1.6 0.00 0.00 0.00 92 1011.6
20260831083906 11 220 1.6 1.6 0.00 0.00 0.00 92 1011.7
20260831083401 11 201 0.0 1.6 0.00 0.00 0.00 92 1011.5
20260831082900 11 186 1.6 3.2 0.00 0.00 0.00 92 1011.7
20260831082400 11 191 1.6 1.6 0.00 0.00 0.00 92 1011.7
20260831081856 11 160 0.0 0.0 0.00 0.00 0.00 92 1011.6
20260831081351 11 135 0.0 0.0 0.00 0.00 0.00 92 1011.7
20260831080847 11 189 0.0 0.0 0.00 0.00 0.00 92 1011.5
20260831080343 11 134 0.0 0.0 0.00 0.00 0.00 92 1011.5
20260831075838 11 131 0.0 0.0 0.00 0.00 0.00 92 1011.3
20260831075332 11 109 0.0 0.0 0.00 0.00 0.00 92 1011.5
20260831074828 11 86 0.0 0.0 0.00 0.00 0.00 92 1011.5
20260831074327 11 85 0.0 0.0 0.00 0.00 0.00 92 1011.3
20260831073822 11 91 0.0 0.0 0.00 0.00 0.00 93 1011.1
20260831073316 11 64 0.0 0.0 0.00 0.00 0.00 92 1011.2
20260831072811 11 35 0.0 0.0 0.00 0.00 0.00 92 1011.4
20260831072307 11 35 0.0 0.0 0.00 0.00 0.00 92 1011.3
20260831071803 11 35 0.0 0.0 0.00 0.00 0.00 92 1011.3
20260831071256 11 339 0.0 0.0 0.00 0.00 0.00 92 1011.4
20260831070751 11 339 0.0 0.0 0.00 0.00 0.00 92 1011.4
20260831070250 12 339 0.0 0.0 0.00 0.00 0.00 92 1011.3
20260831065749 12 339 0.0 0.0 0.00 0.00 0.00 92 1011.3
20260831065247 12 339 0.0 0.0 0.00 0.00 0.00 92 1011.5
20260831064743 12 339 0.0 0.0 0.00 0.00 0.00 92 1011.5
20260831064237 12 337 0.0 0.0 0.00 0.00 0.00 92 1011.6
20260831063734 12 189 0.0 0.0 0.00 0.00 0.00 92 1011.3
20260831063228 12 335 0.0 0.0 0.00 0.00 0.00 91 1011.4
20260831062728 12 330 0.0 1.6 0.00 0.00 0.00 91 1011.8
20260831062223 12 192 3.2 3.2 0.00 0.00 0.00 91 1011.7
20260831061721 12 176 1.6 3.2 0.00 0.00 0.00 91 1011.9
20260831061217 12 238 1.6 3.2 0.00 0.00 0.00 91 1011.7
20260831060713 12 234 3.2 3.2 0.00 0.00 0.00 91 1011.6
20260831060212 13 206 0.0 0.0 0.00 0.00 0.00 91 1011.7
20260831055707 13 196 0.0 0.0 0.00 0.00 0.00 90 1011.2
20260831055201 13 211 4.8 4.8 0.00 0.00 0.00 90 1011.4
20260831054656 13 244 3.2 3.2 0.00 0.00 0.00 90 1011.2
20260831054156 13 214 6.4 8.0 0.00 0.00 0.00 90 1011.3
20260831053650 13 239 4.8 4.8 0.00 0.00 0.00 90 1011.3
20260831053149 13 276 4.8 4.8 0.00 0.00 0.00 90 1011.2
20260831052648 13 223 4.8 4.8 0.00 0.00 0.00 90 1011.1
20260831052147 13 258 3.2 3.2 0.00 0.00 0.00 90 1011.1
20260831051645 13 241 6.4 9.7 0.00 0.00 0.00 90 1010.9
20260831051144 13 259 4.8 4.8 0.00 0.00 0.00 91 1010.9
20260831050639 13 199 4.8 4.8 0.00 0.00 0.00 91 1010.7
20260831050133 13 251 4.8 4.8 0.00 0.00 0.00 91 1010.7
20260831045633 13 288 3.2 3.2 0.00 2.72 2.72 91 1010.6
20260831045128 13 295 3.2 3.2 0.00 2.72 2.72 91 1010.6
20260831044623 13 285 4.8 4.8 0.00 2.72 2.72 91 1010.6
20260831044118 13 189 1.6 3.2 0.00 2.72 2.72 91 1010.6
20260831043613 13 213 1.6 1.6 0.00 2.72 2.72 91 1010.4
20260831043103 14 145 0.0 1.6 0.00 2.72 2.72 91 1010.6
20260831042602 14 256 1.6 1.6 0.00 2.72 2.72 91 1010.5
20260831042057 14 176 1.6 1.6 0.00 2.72 2.72 91 1010.3
20260831041552 14 191 1.6 1.6 0.00 2.72 2.72 90 1010.4
20260831041051 15 257 3.2 3.2 0.00 2.72 2.72 90 1010.4
20260831040546 15 235 3.2 3.2 0.00 2.72 2.72 90 1010.4
20260831040045 15 317 0.0 0.0 0.00 2.72 2.72 89 1010.2
20260831035543 15 316 1.6 1.6 0.00 2.72 2.72 89 1010.3
20260831035039 15 267 1.6 3.2 0.00 2.72 2.72 89 1010.4
20260831034533 15 294 1.6 1.6 0.00 2.72 2.72 88 1010.4
20260831034028 15 295 3.2 3.2 0.00 2.72 2.72 88 1010.3
20260831033524 15 290 1.6 3.2 0.00 2.72 2.72 88 1010.6
20260831033019 16 194 1.6 3.2 0.00 2.72 2.72 87 1010.8
20260831032518 16 240 4.8 4.8 0.00 2.72 2.72 87 1010.7
20260831032014 16 228 6.4 8.0 0.00 2.72 2.72 87 1010.9
20260831031514 16 219 4.8 4.8 0.00 2.72 2.72 87 1010.6
20260831031013 16 227 4.8 4.8 0.00 2.72 2.72 85 1010.4
20260831030512 16 286 6.4 8.0 0.00 2.72 2.72 83 1009.9
20260831030011 16 297 8.0 9.7 0.00 2.72 2.72 83 1009.9
20260831025504 16 340 3.2 3.2 0.00 2.72 2.72 86 1010.0
20260831024959 16 166 0.0 0.0 0.00 2.72 2.72 86 1009.7
20260831024454 16 283 1.6 1.6 0.00 2.72 2.72 85 1009.8
20260831023948 16 53 0.0 1.6 0.00 2.72 2.72 85 1010.0
20260831023446 16 42 1.6 1.6 0.00 2.72 2.72 84 1009.6
20260831022942 16 39 1.6 3.2 0.00 2.72 2.72 82 1009.6
20260831022440 16 25 4.8 4.8 0.00 2.72 2.72 83 1009.8
20260831021935 16 38 3.2 4.8 0.00 2.72 2.72 82 1009.7
20260831021435 16 320 6.4 8.0 0.00 2.72 2.72 81 1009.7
20260831020931 16 311 6.4 8.0 0.00 2.72 2.72 83 1009.9
20260831020430 16 359 8.0 11.3 0.00 2.72 2.72 83 1009.3
20260831015925 16 322 8.0 11.3 0.00 2.72 2.72 84 1009.5
20260831015421 16 279 14.5 17.7 0.00 2.72 2.72 85 1010.0
20260831014917 16 261 14.5 22.5 0.00 2.72 2.72 85 1010.0
20260831014416 16 317 17.7 24.1 0.00 2.72 2.72 85 1010.2
20260831013912 16 0 17.7 25.7 0.00 2.72 2.72 88 1010.2
20260831013408 16 308 14.5 17.7 0.00 2.72 2.72 89 1010.3
20260831012902 16 317 17.7 25.7 0.00 2.72 2.72 90 1010.3
20260831012357 16 273 17.7 24.1 0.13 2.72 2.72 90 1010.2
20260831011852 16 299 24.1 27.4 0.13 2.72 2.72 91 1010.1
20260831011346 16 308 14.5 17.7 0.00 2.69 2.69 92 1009.9
20260831010837 16 295 17.7 20.9 0.36 2.69 2.69 93 1010.3
20260831010336 16 300 16.1 22.5 0.48 2.69 2.69 93 1010.6
20260831005832 16 297 19.3 25.7 0.61 2.64 2.64 94 1010.2
20260831005328 17 286 24.1 27.4 1.19 2.62 2.62 94 1010.2
20260831004827 17 274 14.5 17.7 4.67 2.54 2.54 93 1010.5
20260831004324 17 288 17.7 22.5 7.62 2.44 2.44 93 1010.4
20260831003819 18 285 32.2 40.2 4.55 1.88 1.88 92 1010.1
20260831003316 20 256 20.9 37.0 0.00 1.12 1.12 84 1010.0
20260831002815 21 265 16.1 20.9 0.00 1.12 1.12 81 1009.5
20260831002308 23 247 12.9 16.1 0.00 1.12 1.12 83 1008.9
20260831001804 23 170 9.7 11.3 0.00 1.12 1.12 84 1007.2
20260831001259 23 142 6.4 8.0 0.00 1.12 1.12 84 1006.8
20260831000757 24 122 4.8 8.0 0.00 1.12 1.12 83 1006.7
20260831000257 24 115 9.7 11.3 0.00 1.12 1.12 83 1006.6
20260830235755 24 125 11.3 14.5 0.00 1.12 1.12 82 1006.4
20260830235250 25 122 12.9 14.5 0.00 1.12 1.12 82 1006.5
20260830234745 25 97 12.9 16.1 0.00 1.12 1.12 81 1006.2
20260830234241 25 153 11.3 12.9 0.00 1.12 1.12 81 1006.2
20260830233737 25 143 12.9 16.1 0.00 1.12 1.12 81 1006.3
20260830233232 25 91 6.4 8.0 0.00 1.12 1.12 80 1006.5
20260830232727 25 108 6.4 9.7 0.00 1.12 1.12 80 1006.6
20260830232223 25 131 11.3 12.9 0.00 1.12 1.12 79 1006.6
20260830231720 25 114 8.0 12.9 0.00 1.12 1.12 79 1006.7
20260830231219 25 98 11.3 12.9 0.00 1.12 1.12 79 1006.6
20260830230714 25 81 8.0 11.3 0.00 1.12 1.12 79 1006.4
20260830230209 25 85 14.5 16.1 0.00 1.12 1.12 78 1006.5
20260830225703 25 127 8.0 9.7 0.00 1.12 1.12 78 1006.4
20260830225158 25 93 9.7 11.3 0.00 1.12 1.12 77 1006.3
20260830224657 26 135 8.0 11.3 0.00 1.12 1.12 77 1006.2
20260830224153 26 100 14.5 17.7 0.00 1.12 1.12 76 1006.2
20260830223649 26 78 11.3 16.1 0.00 1.12 1.12 77 1006.2
20260830223144 26 106 11.3 14.5 0.00 1.12 1.12 77 1006.5
20260830222639 26 80 9.7 14.5 0.00 1.12 1.12 76 1006.5
20260830222134 26 109 11.3 12.9 0.00 1.12 1.12 77 1006.5
20260830221629 26 140 9.7 11.3 0.00 1.12 1.12 76 1006.7
20260830221120 26 94 14.5 16.1 0.00 1.12 1.12 76 1006.6
20260830220615 26 102 17.7 22.5 0.00 1.12 1.12 77 1006.4
20260830220108 26 109 16.1 20.9 0.00 1.12 1.12 76 1006.6
20260830215607 26 106 11.3 16.1 0.00 1.12 1.12 75 1006.4
20260830215101 26 99 11.3 14.5 0.00 1.12 1.12 76 1006.4
20260830214556 26 73 11.3 14.5 0.00 1.12 1.12 77 1006.5
20260830214051 26 130 8.0 11.3 0.00 1.12 1.12 76 1006.8
20260830213545 27 82 11.3 12.9 0.00 1.12 1.12 74 1006.5
20260830213041 26 75 8.0 9.7 0.00 1.12 1.12 75 1006.9
20260830212537 27 60 11.3 14.5 0.00 1.12 1.12 74 1006.7
20260830212032 26 105 11.3 12.9 0.00 1.12 1.12 76 1006.8
20260830211526 27 83 12.9 14.5 0.00 1.12 1.12 76 1007.4
20260830211020 26 82 6.4 11.3 0.00 1.12 1.12 77 1007.5
20260830210515 26 102 11.3 12.9 0.00 1.12 1.12 78 1007.5
20260830210014 26 70 11.3 12.9 0.00 1.12 1.12 78 1007.8
20260830205507 26 101 8.0 9.7 0.00 1.12 1.12 78 1007.8
20260830205003 26 137 6.4 9.7 0.00 1.12 1.12 79 1007.5
20260830204501 26 102 8.0 11.3 0.00 1.12 1.12 79 1007.8
20260830203956 26 63 4.8 4.8 0.00 1.12 1.12 79 1008.1
20260830203452 26 78 9.7 11.3 0.00 1.12 1.12 79 1007.8
20260830202951 26 68 8.0 9.7 0.00 1.12 1.12 77 1007.9
20260830202446 26 55 11.3 12.9 0.00 1.12 1.12 77 1007.7
20260830201943 26 63 8.0 9.7 0.00 1.12 1.12 77 1007.9
20260830201441 26 48 6.4 9.7 0.00 1.12 1.12 79 1007.8
20260830200937 26 67 11.3 14.5 0.00 1.12 1.12 77 1007.8
20260830200437 26 84 8.0 11.3 0.00 1.12 1.12 79 1007.8
20260830195932 26 110 8.0 9.7 0.00 1.12 1.12 76 1008.1
20260830195427 26 58 8.0 11.3 0.00 1.12 1.12 76 1008.0
20260830194925 25 64 8.0 9.7 0.00 1.12 1.12 78 1007.7
20260830194424 25 85 9.7 12.9 0.00 1.12 1.12 78 1008.1
20260830193924 25 74 8.0 11.3 0.00 1.12 1.12 78 1007.9
20260830193423 26 116 9.7 11.3 0.00 1.12 1.12 76 1008.0
20260830192919 25 93 6.4 8.0 0.00 1.12 1.12 79 1008.2
20260830192414 25 126 11.3 12.9 0.00 1.12 1.12 78 1008.0
20260830191909 25 100 6.4 8.0 0.00 1.12 1.12 78 1008.1
20260830191408 25 68 8.0 9.7 0.00 1.12 1.12 80 1008.2
20260830190904 25 111 11.3 12.9 0.00 1.12 1.12 79 1008.3
20260830190359 25 84 6.4 8.0 0.00 1.12 1.12 80 1008.4
20260830185858 25 71 6.4 9.7 0.00 1.12 1.12 81 1008.3
20260830185353 25 54 8.0 12.9 0.00 1.12 1.12 82 1008.2
20260830184848 25 79 12.9 14.5 0.00 1.12 1.12 82 1008.4
20260830184347 24 86 4.8 4.8 0.00 1.12 1.12 83 1008.5
20260830183842 24 76 6.4 11.3 0.00 1.12 1.12 84 1008.7
20260830183336 24 62 6.4 8.0 0.00 1.12 1.12 84 1008.6
20260830182827 24 58 9.7 11.3 0.00 1.12 1.12 84 1008.7
20260830182322 24 61 8.0 9.7 0.00 1.12 1.12 84 1008.9
20260830181818 23 86 12.9 14.5 0.00 1.12 1.12 84 1008.9
20260830181314 23 60 9.7 11.3 0.00 1.12 1.12 84 1009.0
20260830180813 23 77 9.7 12.9 0.00 1.12 1.12 85 1009.0
20260830180307 23 63 8.0 9.7 0.00 1.12 1.12 86 1009.2
20260830175802 23 142 8.0 9.7 0.00 1.12 1.12 87 1009.3
20260830175257 23 131 9.7 11.3 0.00 1.12 1.12 87 1009.3
20260830174756 23 101 8.0 11.3 0.00 1.12 1.12 87 1009.4
20260830174252 23 127 8.0 9.7 0.00 1.12 1.12 88 1009.4
20260830173751 23 79 4.8 4.8 0.00 1.12 1.12 87 1009.5
20260830173247 22 132 9.7 12.9 0.00 1.12 1.12 87 1009.8
20260830172743 22 81 6.4 9.7 0.00 1.12 1.12 88 1009.4
20260830172240 22 104 9.7 11.3 0.00 1.12 1.12 88 1009.7
20260830171735 22 54 8.0 11.3 0.00 1.12 1.12 89 1009.6
20260830171230 22 115 9.7 11.3 0.00 1.12 1.12 89 1009.5
20260830170725 22 109 11.3 12.9 0.00 1.12 1.12 88 1009.6
20260830170224 22 142 6.4 9.7 0.00 1.12 1.12 89 1009.3
20260830165723 22 135 9.7 12.9 0.00 1.12 1.12 88 1009.3
20260830165219 22 153 9.7 12.9 0.00 1.12 1.12 89 1009.4
20260830164715 22 89 11.3 12.9 0.00 1.12 1.12 89 1009.2
20260830164211 22 80 9.7 11.3 0.00 1.12 1.12 90 1009.2
20260830163708 22 91 12.9 14.5 0.00 1.12 1.12 90 1009.6
20260830163203 22 141 8.0 9.7 0.00 1.12 1.12 90 1009.3
20260830162657 22 93 8.0 11.3 0.00 1.12 1.12 91 1009.2
20260830162153 22 137 11.3 12.9 0.00 1.12 1.12 91 1009.2
20260830161648 21 83 6.4 9.7 0.00 1.12 1.12 92 1009.4
20260830161143 21 59 8.0 9.7 0.00 1.12 1.12 92 1009.0
20260830160640 21 69 6.4 8.0 0.00 1.12 1.12 92 1009.0
20260830160139 21 64 9.7 11.3 0.00 1.12 1.12 92 1009.0
20260830155636 21 113 6.4 8.0 0.00 1.12 1.12 93 1009.7
20260830155131 21 61 4.8 8.0 0.00 1.12 1.12 93 1009.5
20260830154626 21 118 4.8 4.8 0.00 1.12 1.12 93 1009.3
20260830154122 21 91 4.8 4.8 0.00 1.12 1.12 93 1009.5
20260830153618 20 109 6.4 8.0 0.00 1.12 1.12 94 1009.5
20260830153118 20 122 4.8 8.0 0.00 1.12 1.12 94 1009.3
20260830152618 20 84 3.2 3.2 0.00 1.12 1.12 94 1009.6
20260830152117 20 137 8.0 11.3 0.00 1.12 1.12 94 1009.4
20260830151612 20 98 8.0 9.7 0.00 1.12 1.12 94 1009.5
20260830151107 20 125 8.0 9.7 0.00 1.12 1.12 94 1009.4
20260830150606 20 124 4.8 4.8 0.00 1.12 1.12 94 1009.6
20260830150101 20 124 4.8 4.8 0.00 1.12 1.12 94 1009.5
20260830145601 20 143 9.7 12.9 0.00 1.12 1.12 94 1009.2
20260830145056 20 110 9.7 9.7 0.00 1.12 1.12 94 1009.0
20260830144552 20 95 9.7 12.9 0.00 1.12 1.12 94 1009.2
20260830144048 20 112 4.8 8.0 0.00 1.12 1.12 94 1009.0
20260830143543 20 96 9.7 11.3 0.00 1.12 1.12 94 1009.2
20260830143041 20 90 9.7 11.3 0.00 1.12 1.12 94 1009.3
20260830142537 20 113 11.3 14.5 0.00 1.12 1.12 94 1009.2
20260830142032 20 85 8.0 8.0 0.00 1.12 1.12 94 1009.4
20260830141527 20 132 8.0 9.7 0.00 1.12 1.12 94 1009.3
20260830141022 20 120 8.0 11.3 0.00 1.12 1.12 94 1009.5
20260830140521 20 115 11.3 11.3 0.00 1.12 1.12 94 1009.4